Race Coverage Navigation

TS # 4 / Parker, AZ  2019

 


TS STATS
TS Distance 51.36 
Total Distance 286.42 
Miles To Go 2783.86 
TS Climbing 286 
Total Climbing
TS  Elevation
TS  Net Elevation 461 
Map Filename Open Map 
Directions Filename  
Latitude 34.14 
Longitude -114 
Google Map  TimeStation Map 


TS Arrival Data
Arr Ord  #/Name Arrival DT TS Dst Avg This TS Avg Overall Ascending
 1 R102 - Build-A-Bike (Adam Kidd)  06/13/2019 1:36 51.36  4.93  8.41 
 2 491 - BOURREAU JACQUES  06/13/2019 2:06 51.36  7.59  8.52 
 3 R101 - Bobby Klatt  06/12/2019 19:51 51.36  7.25  10.13 
 4 R87 - Spoke Life Cycles / TRD (Lucas Spencer)  06/12/2019 17:43 51.36  9.51  10.96 
 5 R117 - ROGIE (Roger Foote)  06/12/2019 15:39 51.36  13.23  11.8 
 6 424 - Team i RON man Veterans supporting Veterans  06/12/2019 16:32 51.36  10.48  11.93 
 7 R112 - John Hoopingarner  06/12/2019 15:09 51.36  23.52  12.09 
 8 R114 - Krishna Prakash  06/12/2019 14:54 51.36  12.79  12.2 
 9 607 - Sabine Bird (Team Bean)  06/12/2019 15:23 51.36  10.27  12.27 
 10 R105 - 2nd Chance Racing (Craig Johnson)  06/12/2019 14:41 51.36  11.76  12.35 
 11 R110 - James Golding  06/12/2019 14:29 51.36  14.14  12.44 
 12 614 - Per Nielsen  06/12/2019 15:12 51.36  11.05  12.49 
 13 527 - TALABARDON (Herve Talabardon)  06/12/2019 14:50 51.36  9.91  12.81 
 14 563 - Team Nico Ultracycling - In Fight against Cancer   06/12/2019 14:29 51.36  12.63  12.98 
 15 R119 - Team BlueLine (Martha Hall)  06/12/2019 13:12 51.36  11.99  13.05 
 16 605 - Christian Echavarria  06/12/2019 13:56 51.36  11.41  13.28 
 17 R108 - Eric C Pearce  06/12/2019 12:37 51.36  10.17  13.55 
 18 R115 - Kym Louie  06/12/2019 12:19 51.36  11.46  13.61 
 19 367 - Daniela Genovesi  06/12/2019 13:09 51.36  15.11  13.62 
 20 R116 - Philippe May  06/12/2019 12:17 51.36  12.38  13.72 
 21 608 - Elin Starup  06/12/2019 12:39 51.36  10.81  13.88 
 22 R120 - Team Next Step (Peter Pedersen)  06/12/2019 11:56 51.36  16.22  13.93 
 23 R103 - Chris Davies  06/12/2019 12:03 51.36  9.91  13.96 
 24 610 - Kabir Rachure  06/12/2019 12:46 51.36  11.76  14.02 
 25 510 - John C. Tarlton  06/12/2019 12:42 51.36  14.6  14.17 
 26 R84 - James Jason Ingels  06/12/2019 11:28 51.36  14.47  14.42 
 27 615 - Philipp Amhof  06/12/2019 12:01 51.36  8.83  14.49 
 28 R104 - Team everve Christian (Christian Beichel)  06/12/2019 11:15 51.36  11.25  14.51 
 29 411 - Geoff Brunner  06/12/2019 12:08 51.36  14.67  14.63 
 30 604 - Chieko Ozawa  06/12/2019 11:35 51.36  10.59  14.66 
 31 611 - Marcelo Soares " MIXIRICA "  06/12/2019 11:51 51.36  35.02  14.66 
 32 399 - Valerio Zamboni  06/12/2019 12:03 51.36  14.47  14.7 
 33 R106 - Damaceleste.com (Valentina Tanzi)  06/12/2019 10:41 51.36  13.23  14.79 
 34 559 - Team Martin RAAM 2019 (Martin Bergmeister)  06/12/2019 11:37 51.36  11.99  14.93 
 35 R207 - We Might Make It!  06/12/2019 10:14 51.36  14.67  14.97 
 36 618 - GREGORY ROBINSON  06/12/2019 11:03 51.36  17.12  15.21 
 37 539 - Kari Rouvinen  06/12/2019 11:07 51.36  16.05  15.34 
 38 T210 - Bike Wine Team  06/16/2019 9:44 51.36  16.13  15.41 
 39 621 - Themsen Ultracycling (Jacob Themsen)  06/12/2019 10:44 51.36  16.39  15.44 
 40 416 - Leah Goldstein  06/12/2019 10:38 51.36  15.97  15.45 
 41 568 - Alexandra Meixner  06/12/2019 10:36 51.36  16.75  15.45 
 42 R209 - Workhorses  06/12/2019 9:28 51.36  17.03  15.58 
 43 T203 - JPsDuo  06/16/2019 9:24 51.36  15.18  15.61 
 44 T409 - Serpentine Golden Girls  06/16/2019 9:36 51.36  16.75  15.67 
 45 R122 - Kirk Gentle  06/12/2019 9:37 51.36  15.18  15.68 
 46 R121 - Ironmae (Rosecler Costa)  06/12/2019 9:18 51.36  13.52  15.85 
 47 161 - Seana Hogan  06/12/2019 10:02 51.36  16.66  16 
 48 620 - Team Jefferson (Allan Jefferson)  06/12/2019 9:46 51.36  18.34  16.3 
 49 T208 - Team Machine  06/16/2019 8:25 51.36  15.97  16.57 
 50 T801 - Mind Over Matter  06/16/2019 8:43 51.36  18.56  16.64 
 51 623 - Ultra Paka Racing Team (Daniel Polman)  06/12/2019 9:19 51.36  14.6  16.68 
 52 329 - Peter Oyler  06/12/2019 9:45 51.36  16.75  16.7 
 53 622 - Thomas Odom-Team Kyle Pease Foundation  06/12/2019 9:17 51.36  15.33  16.73 
 54 R203 - Mike 'n' Jay Giretto con Amici  06/12/2019 8:10 51.36  17.12  16.83 
 55 R111 - Jennifer Orr  06/12/2019 8:16 51.36  16.22  16.86 
 56 288 - Dave Haase  06/12/2019 9:29 51.36  16.13  16.98 
 57 R202 - Laureus Alegra  06/12/2019 8:01 51.36  17.31  17 
 58 T205 - Prevent Breast Cancer powered by Endomag  06/16/2019 7:56 51.36  16.3  17 
 59 529 - Isa Pulver  06/12/2019 8:55 51.36  15.88  17.02 
 60 T417 - Team4RAAM 2019 powered by TGW Living Logistics  06/16/2019 8:16 51.36  19.02  17.03 
 61 R124 - Andres Rodriguez  06/12/2019 8:07 51.36  17.71  17.05 
 62 603 - Alan Bradley  06/12/2019 9:06 51.36  16.66  17.13 
 63 609 - Jakob Olsen  06/12/2019 8:53 51.36  13.82  17.32 
 64 R201 - IN OUR PRIME  06/12/2019 7:43 51.36  17.22  17.32 
 65 R402 - SUWOS  06/12/2019 7:33 51.36  16.84  17.34 
 66 594 - Mauerhofer Thomas  06/12/2019 8:54 51.36  17.81  17.34 
 67 T806 - Team SuperMarrow  06/16/2019 8:01 51.36  19.26  17.43 
 68 T402 - EA/WFP RAAM Team  06/16/2019 7:28 51.36  20.82  17.61 
 69 349 - Mark Pattinson  06/12/2019 8:43 51.36  16.39  17.75 
 70 T204 - Lucan CRC  06/16/2019 7:11 51.36  19.63  17.77 
 71 T405 - High Rollers  06/16/2019 7:19 51.36  19.75  17.83 
 72 617 - SOLO.kiwi (Craig Harper)  06/12/2019 8:17 51.36  17.03  17.85 
 73 R51 - Fabio Silvestri  06/12/2019 7:39 51.36  18.56  17.86 
 74 442 - Joe Barr  06/12/2019 8:30 51.36  15.88  17.92 
 75 612 - Markus K. Brandl  06/12/2019 8:14 51.36  18.23  17.98 
 76 T413 - TEAM BRASIL - SKIPPER  06/16/2019 7:14 51.36  20.01  18.07 
 77 T803 - Team EndoPark  06/16/2019 7:15 51.36  20.41  18.22 
 78 T207 - Team Life Time  06/16/2019 6:44 51.36  19.5  18.34 
 79 T414 - Brazil Nuts  06/16/2019 7:00 51.36  21.86  18.36 
 80 R400 - HTX Velo Femme  06/12/2019 6:38 51.36  19.5  18.4 
 81 R205 - Team OB2  06/12/2019 6:30 51.36  19.02  18.64 
 82 T415 - TEAM FIRE VELO 935  06/16/2019 6:45 51.36  21.55  18.68 
 83 T403 - EKJ Denmark  06/16/2019 6:12 51.36  18.91  19.12 
 84 T206 - Project Linear Acceleration  06/16/2019 5:56 51.36  19.88  19.31 
 85 T410 - Soap-Aid  06/16/2019 6:07 51.36  21.55  19.37 
 86 279 - Marko Baloh  06/12/2019 7:20 51.36  19.75  19.48 
 87 R200 - EY Legacy Builders 2019  06/12/2019 5:51 51.36  19.5  19.55 
 88 T804 - Team FSHD Skyland Trail  06/16/2019 6:07 51.36  19.75  19.66 
 89 T400 - Cantastic4  06/16/2019 5:43 51.36  1.95  19.69 
 90 T406 - Operation Walk Midwest  06/16/2019 5:48 51.36  22.49  19.71 
 91 T808 - Antonia's Friends 2019  06/16/2019 6:06 51.36  21.7  19.78 
 92 T416 - Team Rotary Raams Polio  06/16/2019 5:54 51.36  24.65  19.8 
 93 T802 - Scorchers  06/16/2019 5:53 51.36  24.26  19.94 
 94 T202 - Integra Medical - BAA Racing  06/16/2019 5:24 51.36  20.96  19.94 
 95 T418 - The Opportunists  06/16/2019 5:49 51.36  22.17  19.96 
 96 R401 - San Diego Sports Medicine/Zoca  06/12/2019 5:17 51.36  21.86  20.12 
 97 T408 - Radeln-fuer-Kinder (Cycling-for-Kids)  06/16/2019 5:30 51.36  22.83  20.17 
 98 377 - Christoph Strasser  06/12/2019 6:48 51.36  20.82  20.24 
 99 T807 - Team ZOE International  06/16/2019 5:37 51.36  23  20.43 
 100 T407 - Julian Becker   06/16/2019 5:18 51.36  25.68  20.43 
 101 T200 - AIR RELAX GoPro TEAM BRASIL  06/16/2019 5:01 51.36  21.25  20.43 
 102 T412 - Team Aspect  06/16/2019 5:05 51.36  21.86  20.88 
 103 T805 - Team Oceanside  06/16/2019 5:07 51.36  22.66  21.14 
 104 R403 - Team Viasat-Denver  06/12/2019 4:23 51.36  23  21.43 
 105 T201 - EAT WELL  06/16/2019 4:09 51.36  25.05  21.81 
 106 T404 - Gentlemen of speed  06/16/2019 3:59 51.36  25.9  22.46 
 107 R404 - Team Viasat - Carlsbad  06/12/2019 3:27 51.36  23.52  23.01 
 108 T411 - team alpha - tischlerei groemmer  06/16/2019 3:42 51.36  27.03  23.19 
 109 T401 - Data Techniques powered by Networks Centre  06/16/2019 3:31 51.36  25.26  23.22 
 110 T800 - Backstedt Racing Project 14  06/16/2019 3:27 51.36  25.9  23.93